Simultaneous Nadir Overpasses (SNOs) Predictions

Prediction of SNOs between GOES-15 and METOP-A Satellite Orbit:

Table of predicted SNOs for the next 14.0 days since TLE Epoch: 3/4/2017
Index Date Time (GOES-15) GOES-15 Lat,Lon METOP-A Lat,Lon Distance(km) Time Diff (sec)
1 03/04/2017 06:18:51 -0.04,-135.08 0.62,-132.11 337.96 80
2 03/05/2017 18:37:42 0.03,-135.02 0.40,-136.67 187.96 80
3 03/06/2017 18:14:23 0.03,-134.99 -0.70,-131.67 377.40 80
4 03/08/2017 06:33:23 -0.03,-134.94 -0.35,-136.27 151.75 80
5 03/09/2017 06:15:23 -0.03,-134.91 0.75,-131.27 413.60 80
6 03/10/2017 18:31:35 0.03,-134.85 0.27,-135.83 112.76 80
7 03/11/2017 18:13:35 0.03,-134.81 -0.84,-130.84 452.38 80
8 03/13/2017 06:29:56 -0.03,-134.76 -0.16,-135.44 77.28 80
9 03/14/2017 06:11:56 -0.04,-134.72 0.89,-130.43 487.84 80
10 03/15/2017 18:28:07 0.03,-134.66 0.13,-134.99 39.03 80




NCC Satellite Simultaneous Nadir Overpasses (SNOs) Prediction Service
